Погода Шарья

Хотите узнать прогноз погоды Шарья? Тогда Вам сюда: Погода Шарья

Поиск расширенной информации на нашем сайте:

Полезная информация:

Новости сайта



02.01.2020
Опубликован Долгосрочный прогноз погоды по городам России и ближнего зарубежья на январь 2020 года.
Карты: Прогноз на январь и февраль 2020 года, Сравнение прогнозируемой аномалии приземной температуры воздуха на январь 2020 года по разным моделям.




Погода Шарья - сегодня

Время (UTC), дата Ветер
(°,м/с) 
Видим.   Явления Облачность Т
(°С)
Тd
(°С)
f(%) Тe
(°С)
Pmin
(гПа)
dP
(гПа)
Po
(мм)
O2
(г/м3)
Тmin Tmax R s Состояние
почвы
03 29.11.20 100 (В) 10 км  {снег}  10/10 600 м 
[Sc]
-5.3 -7 88 -7  1039.4  0.9  767  316  -5.8    0.4  равномерный
сухой снег
100% 
06 29.11.20 120 (ЮВ) 10 км  {снег}  10/10 600 м 
[Sc]
-5.5 -7.2 88 -7  1040.4  768  317  -5.8         
09 29.11.20 120 (ЮВ) 10 км    10/10 600 м 
[Sc]
-4.5 -6.2 88 -6  1041.1  0.7  769  316           
12 29.11.20 120 (ЮВ) 10 км  {ливн. осадки}  10/10 600 м кучево-дожд. 
[Cb cap]
-4.1 -5.9 87 -5  1041.6  0.5  769  315           
15 29.11.20 140 (ЮВ) 10 км  слаб. снег  10/10 600 м 
[Sc]
-3.8 -5.2 90 -7  1041.9  0.3  769  315    -3.8  0.2     
18 29.11.20 160 (Ю) 10 км  {снег}  10/10 600 м 
[Sc]
-3.3 -4.3 93 -5  1042.3  0.5  770  314           
21 29.11.20 140 (ЮВ) 10 км    10/10 600 м 
[Sc]
-2.9 -3.7 94 -6  1042.5  0.1  770  314           
00 30.11.20 130 (ЮВ) 10 км    10/10 600 м 
[Sc]
-2.5 -3.2 95 -5  1042  -0.4  769  313           
03 30.11.20 140 (ЮВ) 10 км    10/10 600 м 
[Sc]
-1.7 -2.7 93 -4  1041.5  -0.4  769  312  -3.8    0.0  равномерный
сухой снег
100% 
06 30.11.20 150 (ЮВ) 2000 м  дымка  10/10 600 м 
[Sc]
-0.8 -1.8 93 -3  1041.1  -0.4  769  311  -3.8         
09 30.11.20 150 (ЮВ) 10 км    10/1 600 м верхняя 
[Sc|Ci fib]
-0.1 -2.3 85 -3  1040.4  -0.6  768  310           
12 30.11.20 140 (ЮВ) 10 км    10/0 верхняя 
[Ci sp]
-1.5 -3.6 86 -2  1039.6  -0.9  768  311           
15 30.11.20 160 (Ю) 5{10}  10 км    10/10 600 м 
[Sc]
-2.6 -4.7 85 -6  1038.9  -0.8  767  313    -0.1       
18 30.11.20 160 (Ю) 3{10}  10 км    9/9 600 м 
[Sc]
-5.1 -7.2 85 -7  1039.2  0.1  767  316           
21 30.11.20 160 (Ю) 10 км    ясно 
-7 -8.8 87 -11  1039.2  0.1  767  318           
00 01.12.20 160 (Ю) 10 км    8/0 верхняя 
[Ci sp]
-7.6 -9.9 84 -10  1038.8  -0.5  767  319           
03 01.12.20 160 (Ю) 10 км    6/0 верхняя 
[Ci fib]
-7.7 -10.3 82 -10  1038.9  0.1  767  319  -7.7      равномерный
сухой снег
100% 
06 01.12.20 170 (Ю) 10 км    10/0 верхняя 
[Ci sp]
-7.3 -10.5 78 -11  1039.2  0.4  767  319  -7.7         
09 01.12.20 180 (Ю) 10 км    10/0 верхняя 
[Ci sp]
-5.5 -9.6 73 -9  1039.1  767  316           
12 01.12.20 170 (Ю) 10 км    10/0 средняя, верхняя 
[Ac trans|Ci sp]
-6 -9.4 77 -9  1038.7  -0.4  767  317           
15 01.12.20 180 (Ю) 10 км    10/0 верхняя 
[Ci sp]
-6.3 -9.4 79 -10  1038.5  -0.3  767  317    -5.3       
18 01.12.20 180 (Ю) 10 км    10/0 верхняя 
[Ci sp]
-7 -9.7 81 -10  1039.1  0.6  767  318           
21 01.12.20 180 (Ю) 10 км    10/0 средняя 
[As trans]
-7.6 -10 83 -10  1039.5  0.4  767  319           
00 02.12.20 180 (Ю) 10 км    10/8 600 м средняя 
[Sc|As trans]
-7.9 -10.2 83 -9  1039.5  767  319           
03 02.12.20 180 (Ю) 10 км    10/0 средняя, верхняя 
[Ac trans|Ci sp]
-8.3 -10.4 85 -10  1039.3  -0.2  767  320  -8.3      равномерный
сухой снег
100% 
Время (UTC), дата Ветер
(°,м/с) 
Видим.   Явления Облачность Т
(°С)
Тd
(°С)
f(%) Тe
(°С)
Pmin
(гПа)
dP
(гПа)
Po
(мм)
O2
(г/м3)
Тmin Tmax R s Состояние
почвы

Для получения пояснительной информации подведите курсор к названию столбца.

ПОГОДА Шарья - архив

Всё, что Вы хотите узнать о погоде Шарья - удобно и подробно!

Выберите нужную дату (начиная с 1 января 2019* года) и нажмите кнопку "Найти".
Будут отображены архивные сводки погоды по пункту Шарья, начиная с указанной даты.


Отображать данные в формате CSV (для использования в таблицах Excel)


Внимание! Наш архив погоды предназначен исключительно для личного некоммерческого использования в познавательных целях. Если Вам необходимы официальные справки о состоянии погоды (для производственных, юридических, коммерческих и т.п. целей), обращайтесь в органы Росгидромета.

*Примечание: данная дата относится к архиву по метеостанциям СССР (Россия, СНГ, Балтия).
Архив по метеостанциям Зарубежной Европы и Азии (кроме Китая) хранится 10 дней, по другим регионам земного шара (Китай, Африка, Америка, Австралия, Океания) - 1 день.

Шарья - район местоположения метеостанции


Название, широта, долгота, высота метеостанции:
Шарья 58.4°ш. 45.5°д. 125 м над ур. моря [Российская Федерация]

Дополнительная информация

В oтличие oт бoльшинства пoгoдных сайтoв мы публикуем пoдрoбную метеoинфoрмацию в детальнoм прoфессиoнальнoм фoрмате.

Характеристики температуры и влажнoсти вoздуха измеряются на высoте 2 м в тени вдали oт зданий и деревьев.
Скoрoсть ветра измеряется на высoте 10 м (на урoвне рoста челoвека скoрoсть ветра ниже в 1.5-2 раза). Если метеoстанция нахoдится в гoрoде или в лесу, тo скoрoсть ветра занижена на 2-4 м/с пo сравнению с oткрытым местoм. Скoрoсть ветра над акватoриями крупных рек и oзёр, а также на вершинах хoлмoв на 2-5 м/с выше, чем в oбычных услoвиях.
Атмoсфернoе давление в разных тoчках местнoсти мoжет значительнo oтличаться oт давления на метеoстанции, в зависимoсти oт услoвий рельефа (при пoдъёме на 10 м давление пoнижается примернo на 1 мм рт.ст.).